Starlink 30299

operational
NORAD ID: 57650 Int'l Des: 2023-122 Owner: SPXS Country: US Constellation: starlink
LEOCIRCULAR

关于 Starlink 30299

正在加载描述...

实时位置

正在加载3D地球...

即将过境

高度历史

Altitude vs Time

uPlot chart will show altitude changes over time

两行轨道根数

1 57650U 23122U 25352.91206179 .00000924 00000-0 83459-4 0 9993
2 57650 43.0018 173.3121 0001048 278.1199 81.9524 15.02536806130031
Epoch: Dec 18, 2025 • Age: 25 hours

当前状态

高度 559.1 km
速度 7.59 km/s
星下点 22.09°N, 103.73°W
发射日期 Aug 17, 2023
运行时间 2.3 years
类型 internet

技术详情

分类 Payload
质量 730.00 kg
干质量 700.00 kg
总质量 730.00 kg
长度 0.30 m
直径 4.10 m
跨度 29.00 m
形状 Box + pan
制造商 SPXS
平台类型 Starlink V2M
阶段状态 In Orbit
所有者/国家 SPXS/US

大型星座

Loading constellations...